Time,TemperatureF,DewpointF,PressureIn,WindDirection,WindDirectionDegrees,WindSpeedMPH,WindSpeedGustMPH,Humidity,HourlyPrecipIn,Conditions,Clouds,dailyrainin,SoftwareType,DateUTC
2013-11-06 00:13:00,41.0,36.0,30.52,SSW,198,0.0,1.0,82,0.00,,,0.00,,2013-11-06 05:13:00,
2013-11-06 00:23:00,42.0,37.0,30.51,SSW,198,0.0,0.0,83,0.00,,,0.00,,2013-11-06 05:23:00,
2013-11-06 00:44:00,42.0,37.0,30.50,SSW,198,0.0,0.0,83,0.00,,,0.00,,2013-11-06 05:44:00,
2013-11-06 00:54:00,41.0,36.0,30.50,SSW,198,0.0,0.0,83,0.00,,,0.00,,2013-11-06 05:54:00,
2013-11-06 01:22:00,41.0,36.0,30.50,SSW,198,0.0,1.0,83,0.00,,,0.00,,2013-11-06 06:22:00,
2013-11-06 01:42:00,42.0,38.0,30.49,SSW,198,0.0,0.0,84,0.00,,,0.00,,2013-11-06 06:42:00,
2013-11-06 01:52:00,42.0,38.0,30.49,SSW,198,0.0,0.0,84,0.00,,,0.00,,2013-11-06 06:52:00,
2013-11-06 02:22:00,42.0,38.0,30.48,SSW,198,0.0,1.0,84,0.00,,,0.00,,2013-11-06 07:22:00,
2013-11-06 02:42:00,42.0,38.0,30.49,SSW,198,0.0,0.0,84,0.00,,,0.00,,2013-11-06 07:42:00,
2013-11-06 02:52:00,41.0,37.0,30.48,SSW,198,0.0,0.0,84,0.00,,,0.00,,2013-11-06 07:52:00,
2013-11-06 03:22:00,41.0,37.0,30.47,SSW,198,0.0,0.0,85,0.00,,,0.00,,2013-11-06 08:22:00,
2013-11-06 03:42:00,41.0,37.0,30.46,SSW,198,0.0,0.0,86,0.00,,,0.00,,2013-11-06 08:42:00,
2013-11-06 03:52:00,41.0,37.0,30.46,SSW,198,0.0,0.0,86,0.00,,,0.00,,2013-11-06 08:52:00,
2013-11-06 04:22:00,41.0,37.0,30.45,SSW,198,0.0,0.0,87,0.00,,,0.00,,2013-11-06 09:22:00,
2013-11-06 04:43:00,40.0,36.0,30.45,SSW,198,0.0,0.0,87,0.00,,,0.00,,2013-11-06 09:43:00,
2013-11-06 04:53:00,40.0,36.0,30.45,SSW,198,0.0,0.0,87,0.00,,,0.00,,2013-11-06 09:53:00,
2013-11-06 05:23:00,40.0,36.0,30.45,SSW,198,0.0,0.0,87,0.00,,,0.00,,2013-11-06 10:23:00,
2013-11-06 05:53:00,41.0,38.0,30.44,SSW,198,0.0,0.0,89,0.00,,,0.00,,2013-11-06 10:53:00,
2013-11-06 06:22:00,40.0,37.0,30.45,SSW,198,0.0,0.0,88,0.00,,,0.00,,2013-11-06 11:22:00,
2013-11-06 06:42:00,40.0,37.0,30.45,SSW,198,0.0,2.0,89,0.00,,,0.00,,2013-11-06 11:42:00,
2013-11-06 06:52:00,40.0,37.0,30.44,SSW,198,0.0,1.0,89,0.00,,,0.00,,2013-11-06 11:52:00,
2013-11-06 07:22:00,42.0,39.0,30.44,SSW,198,0.0,1.0,90,0.00,,,0.00,,2013-11-06 12:22:00,
2013-11-06 07:42:00,43.0,40.0,30.44,SSW,198,0.0,0.0,90,0.00,,,0.00,,2013-11-06 12:42:00,
2013-11-06 07:52:00,44.0,41.0,30.44,SSW,198,0.0,0.0,90,0.00,,,0.00,,2013-11-06 12:52:00,
2013-11-06 08:22:00,45.0,42.0,30.43,SSW,199,0.0,1.0,89,0.00,,,0.00,,2013-11-06 13:22:00,
2013-11-06 08:42:00,47.0,43.0,30.43,WSW,238,1.0,3.0,87,0.00,,,0.00,,2013-11-06 13:42:00,
2013-11-06 08:52:00,49.0,44.0,30.42,WSW,256,0.0,4.0,84,0.00,,,0.00,,2013-11-06 13:52:00,
2013-11-06 09:22:00,52.0,45.0,30.41,SW,230,3.0,6.0,77,0.00,,,0.00,,2013-11-06 14:22:00,
2013-11-06 09:52:00,54.0,44.0,30.40,SSE,160,1.0,7.0,70,0.00,,,0.00,,2013-11-06 14:52:00,
2013-11-06 10:22:00,55.0,44.0,30.38,SW,232,4.0,9.0,66,0.00,,,0.00,,2013-11-06 15:22:00,
2013-11-06 10:43:00,55.0,43.0,30.39,SSW,200,3.0,9.0,65,0.00,,,0.00,,2013-11-06 15:43:00,
2013-11-06 10:54:00,55.0,44.0,30.39,South,182,2.0,4.0,66,0.00,,,0.00,,2013-11-06 15:54:00,
2013-11-06 11:23:00,55.0,43.0,30.37,SSW,211,1.0,8.0,65,0.00,,,0.00,,2013-11-06 16:23:00,
2013-11-06 11:53:00,56.0,44.0,30.35,SW,221,1.0,6.0,63,0.00,,,0.00,,2013-11-06 16:53:00,
2013-11-06 12:23:00,58.0,44.0,30.33,SW,215,3.0,10.0,59,0.00,,,0.00,,2013-11-06 17:23:00,
2013-11-06 12:52:00,57.0,43.0,30.31,West,260,3.0,10.0,60,0.00,,,0.00,,2013-11-06 17:52:00,
2013-11-06 13:22:00,57.0,43.0,30.29,SSE,163,3.0,7.0,60,0.00,,,0.00,,2013-11-06 18:22:00,
2013-11-06 13:42:00,57.0,44.0,30.29,NNW,340,1.0,5.0,61,0.00,,,0.00,,2013-11-06 18:42:00,
2013-11-06 13:52:00,57.0,43.0,30.29,SSW,202,2.0,6.0,60,0.00,,,0.00,,2013-11-06 18:52:00,
2013-11-06 14:22:00,57.0,43.0,30.27,SW,229,2.0,7.0,60,0.00,,,0.00,,2013-11-06 19:22:00,
2013-11-06 14:42:00,57.0,44.0,30.27,South,185,2.0,10.0,61,0.00,,,0.00,,2013-11-06 19:42:00,
2013-11-06 14:52:00,57.0,44.0,30.26,SW,214,3.0,5.0,61,0.00,,,0.00,,2013-11-06 19:52:00,
2013-11-06 15:22:00,57.0,44.0,30.27,SSW,207,0.0,5.0,62,0.00,,,0.00,,2013-11-06 20:22:00,
2013-11-06 15:52:00,56.0,44.0,30.27,SW,224,1.0,9.0,63,0.00,,,0.00,,2013-11-06 20:52:00,
2013-11-06 16:22:00,56.0,44.0,30.26,SSW,198,2.0,8.0,64,0.00,,,0.00,,2013-11-06 21:22:00,
2013-11-06 16:54:00,55.0,43.0,30.25,SW,225,1.0,7.0,65,0.00,,,0.00,,2013-11-06 21:54:00,
2013-11-06 17:24:00,54.0,42.0,30.23,SSW,195,327.0,327.0,64,-99.99,,,-99.99,,2013-11-06 22:24:00,
2013-11-06 17:53:00,53.0,42.0,30.22,WNW,296,1.0,3.0,67,0.00,,,0.00,,2013-11-06 22:53:00,
2013-11-06 18:22:00,53.0,43.0,30.22,SW,218,0.0,4.0,70,0.00,,,0.00,,2013-11-06 23:22:00,
2013-11-06 18:53:00,52.0,44.0,30.22,South,182,1.0,4.0,73,0.00,,,0.00,,2013-11-06 23:53:00,
2013-11-06 19:22:00,51.0,44.0,30.20,SSW,207,0.0,4.0,78,0.00,,,0.00,,2013-11-07 00:22:00,
2013-11-06 19:42:00,51.0,45.0,30.19,SW,218,1.0,5.0,80,0.00,,,0.00,,2013-11-07 00:42:00,
2013-11-06 19:52:00,51.0,46.0,30.19,SW,215,1.0,4.0,82,0.00,,,0.00,,2013-11-07 00:52:00,
2013-11-06 20:22:00,51.0,46.0,30.17,SSW,205,2.0,6.0,82,0.00,,,0.00,,2013-11-07 01:22:00,
2013-11-06 20:42:00,51.0,46.0,30.17,SW,222,2.0,5.0,82,0.00,,,0.00,,2013-11-07 01:42:00,
2013-11-06 20:52:00,51.0,46.0,30.16,SSW,205,2.0,6.0,82,0.00,,,0.00,,2013-11-07 01:52:00,
2013-11-06 21:22:00,52.0,47.0,30.16,SW,217,3.0,7.0,82,0.00,,,0.00,,2013-11-07 02:22:00,
2013-11-06 22:22:00,51.0,46.0,30.13,SW,233,1.0,4.0,84,0.00,,,0.00,,2013-11-07 03:22:00,
2013-11-06 22:44:00,50.0,45.0,30.12,SW,219,1.0,4.0,84,0.00,,,0.00,,2013-11-07 03:44:00,
2013-11-06 22:55:00,50.0,46.0,30.11,SSW,195,2.0,5.0,85,0.00,,,0.00,,2013-11-07 03:55:00,
2013-11-06 23:13:00,51.0,47.0,30.10,SSW,192,3.0,5.0,86,0.00,,,0.00,,2013-11-07 04:13:00,
2013-11-06 23:24:00,52.0,48.0,30.09,SSW,206,3.0,8.0,85,0.00,,,0.00,,2013-11-07 04:24:00,
2013-11-06 23:53:00,52.0,48.0,30.09,SW,225,2.0,7.0,86,0.00,,,0.00,,2013-11-07 04:53:00,